Weather History for Elizabeth City, NC

Change the Weather History Date:

Monday, June 10, 2013

  Actual Average Record
Temperature  
Mean Temperature 80 °F 74 °F  
Max Temperature 86 °F 84 °F 99 °F (1993)
Min Temperature 73 °F 65 °F 46 °F (1997)
Degree Days  
Heating Degree Days 0 0  
Month to date heating degree days 0 0  
Since 1 June heating degree days 0 0  
Since 1 July heating degree days 2879 3229  
Cooling Degree Days 15 9  
Month to date cooling degree days 100 82  
Year to date cooling degree days 306 246  
Since 1 June cooling degree days 100 82  
Growing Degree Days 28 (Base 50)    
Moisture  
Dew Point 71 °F    
Average Humidity 76    
Maximum Humidity 87    
Minimum Humidity 65    
Precipitation  
Precipitation 0.06 in 0.15 in 1.54 in (2003)
Month to date precipitation 2.84 1.53  
Year to date precipitation 13.51 18.70  
Snow  
Snow 0.00 in - 0.00 in (2002)
Month to date snowfall 0.0  
Since 1 July snowfall T  
Snow Depth 0.00 in    
Sea Level Pressure  
Sea Level Pressure 30.05 in    
Wind  
Wind Speed 12 mph (SSW)    
Max Wind Speed 25 mph    
Max Gust Speed 32 mph    
Visibility 10 miles    
Events Rain    
T = Trace of Precipitation, MM = Missing Value Source: NWS Daily Summary

Daily Weather History Graph

Daily Weather History Graph

Search for Another Location

Airport:

Trip Planner

Search our weather history database for the weather conditions in past years. The results will help you decide how hot, cold, wet, or windy it might be!

Date:

Astronomy

Jun. 10, 2013 Rise Set
Actual Time 5:46 AM EDT 8:21 PM EDT
Civil Twilight 5:16 AM EDT 8:52 PM EDT
Nautical Twilight 4:38 AM EDT 9:29 PM EDT
Astronomical Twilight 3:57 AM EDT 10:11 PM EDT
Moon 7:30 AM EDT (6/10) 9:50 PM EDT (6/10)
Length of Visible Light 15h 35m
Length of Day
14h 35m
Waxing Crescent, 4% of the Moon is Illuminated
Jun 10
Waxing Crescent
Jun 16
First Quarter
Jun 23
Full
Jun 30
Last Quarter
Jul 8
New

Hourly Weather History & Observations

Time (EDT) Temp. Heat Index Dew Point Humidity Pressure Visibility Wind Dir Wind Speed Gust Speed Precip Events Conditions
12:54 AM 75.9 °F - 69.1 °F 79% 30.13 in 10.0 mi South 10.4 mph - N/A   Clear
1:54 AM 75.0 °F - 68.0 °F 79% 30.12 in 10.0 mi SSW 10.4 mph - N/A   Clear
2:54 AM 73.9 °F - 69.1 °F 85% 30.11 in 10.0 mi SSW 8.1 mph - N/A   Clear
3:54 AM 73.9 °F - 69.1 °F 85% 30.11 in 10.0 mi SSW 5.8 mph - N/A   Clear
4:54 AM 73.0 °F - 70.0 °F 90% 30.11 in 10.0 mi SW 8.1 mph - 0.00 in   Overcast
5:54 AM 73.0 °F - 71.1 °F 93% 30.11 in 10.0 mi South 5.8 mph - 0.00 in Rain Light Rain
6:37 AM 73.4 °F - 71.6 °F 94% 30.11 in 10.0 mi South 4.6 mph - 0.00 in   Overcast
6:54 AM 73.9 °F - 72.0 °F 93% 30.11 in 10.0 mi South 6.9 mph - 0.00 in   Overcast
7:54 AM 75.9 °F - 72.0 °F 87% 30.11 in 10.0 mi South 8.1 mph - N/A   Overcast
8:04 AM 75.2 °F - 71.6 °F 89% 30.11 in 10.0 mi South 9.2 mph - N/A   Overcast
8:54 AM 77.0 °F - 72.0 °F 84% 30.11 in 10.0 mi SSW 10.4 mph - N/A   Overcast
9:31 AM 78.8 °F - 71.6 °F 78% 30.10 in 10.0 mi SSW 10.4 mph - N/A   Mostly Cloudy
9:44 AM 80.6 °F 84.6 °F 71.6 °F 74% 30.10 in 10.0 mi SSW 13.8 mph 21.9 mph N/A   Mostly Cloudy
9:54 AM 80.1 °F 83.8 °F 72.0 °F 76% 30.09 in 10.0 mi South 9.2 mph - N/A   Mostly Cloudy
10:20 AM 80.6 °F 84.6 °F 71.6 °F 74% 30.09 in 10.0 mi SSW 15.0 mph - N/A   Scattered Clouds
10:54 AM 82.0 °F 86.3 °F 71.1 °F 69% 30.08 in 10.0 mi SSW 13.8 mph 21.9 mph N/A   Scattered Clouds
11:54 AM 84.0 °F 89.0 °F 71.1 °F 65% 30.06 in 10.0 mi SSW 16.1 mph 25.3 mph N/A   Scattered Clouds
12:54 PM 81.0 °F 86.2 °F 73.9 °F 79% 30.04 in 10.0 mi SSW 15.0 mph - 0.03 in   Mostly Cloudy
1:54 PM 84.9 °F 92.1 °F 73.9 °F 69% 30.01 in 10.0 mi South 16.1 mph 19.6 mph N/A   Scattered Clouds
2:54 PM 84.9 °F 91.4 °F 73.0 °F 67% 29.99 in 10.0 mi South 13.8 mph 21.9 mph 0.00 in   Clear
3:54 PM 84.9 °F 91.4 °F 73.0 °F 67% 29.97 in 10.0 mi SSW 16.1 mph 26.5 mph N/A   Partly Cloudy
4:54 PM 82.9 °F 88.8 °F 73.0 °F 72% 29.96 in 10.0 mi South 10.4 mph 24.2 mph N/A   Scattered Clouds
5:54 PM 82.9 °F 88.0 °F 72.0 °F 69% 29.94 in 10.0 mi South 16.1 mph 21.9 mph N/A   Partly Cloudy
6:54 PM 81.0 °F 85.2 °F 72.0 °F 74% 29.93 in 10.0 mi South 13.8 mph 21.9 mph N/A   Clear
7:54 PM 80.1 °F 83.8 °F 72.0 °F 76% 29.95 in 10.0 mi South 16.1 mph 23.0 mph N/A   Scattered Clouds
8:54 PM 79.0 °F - 71.1 °F 77% 29.96 in 10.0 mi SSW 18.4 mph 27.6 mph N/A   Mostly Cloudy
9:54 PM 73.9 °F - 68.0 °F 82% 29.96 in 10.0 mi SSW 16.1 mph 24.2 mph 0.03 in Rain Light Rain
10:54 PM 73.0 °F - 70.0 °F 90% 29.96 in 10.0 mi South 12.7 mph - 0.00 in Rain Light Rain
11:54 PM 73.9 °F - 71.1 °F 91% 29.96 in 10.0 mi South 12.7 mph - 0.00 in   Partly Cloudy